CW1248 Weather Reports


Display with metric or nautical units.
time (UTC)temp
F
wind
direction
speed
MPH
gust
MPH
rain 1hr
in
rain 24hr
in
rain mn
in
humidity
%
barometer
mb
20260502212006 65 269 14.0 22.0 0.00 0.00 0.00 33 1013.1
20260502211516 65 259 10.0 20.0 0.00 0.00 0.00 34 1013.0
20260502211003 65 261 7.0 18.0 0.00 0.00 0.00 33 1013.0
20260502210505 65 240 9.0 19.0 0.00 0.00 0.00 37 1013.2
20260502210011 65 254 12.0 28.0 0.00 0.00 0.00 31 1013.3
20260502205505 65 219 11.0 28.0 0.00 0.00 0.00 33 1013.3
20260502205006 65 245 9.0 19.0 0.00 0.00 0.00 32 1013.5
20260502204512 65 221 10.0 19.0 0.00 0.00 0.00 32 1013.6
20260502204002 65 241 10.0 17.0 0.00 0.00 0.00 33 1013.6
20260502203508 65 221 9.0 16.0 0.00 0.00 0.00 34 1013.7
20260502203018 65 223 7.0 17.0 0.00 0.00 0.00 33 1013.8
20260502202504 65 218 9.0 20.0 0.00 0.00 0.00 33 1013.8
20260502202006 65 231 10.0 20.0 0.00 0.00 0.00 34 1014.0
20260502201517 64 192 7.0 18.0 0.00 0.00 0.00 32 1014.2
20260502201006 64 243 7.0 18.0 0.00 0.00 0.00 40 1014.3
20260502200506 65 269 6.0 22.0 0.00 0.00 0.00 32 1014.4
20260502200016 64 273 12.0 22.0 0.00 0.00 0.00 33 1014.7
20260502195508 64 207 6.0 19.0 0.00 0.00 0.00 35 1014.6
20260502195004 63 221 10.0 20.0 0.00 0.00 0.00 33 1014.9
20260502194526 63 240 12.0 20.0 0.00 0.00 0.00 33 1015.1
20260502194007 64 249 9.0 21.0 0.00 0.00 0.00 34 1015.0
20260502193507 64 215 5.0 21.0 0.00 0.00 0.00 33 1014.9
20260502193015 63 250 12.0 21.0 0.00 0.00 0.00 33 1015.2
20260502192506 63 194 5.0 15.0 0.00 0.00 0.00 33 1015.0
20260502192006 62 271 9.0 16.0 0.00 0.00 0.00 33 1015.3
20260502191512 62 226 8.0 16.0 0.00 0.00 0.00 34 1015.4
20260502191007 62 221 6.0 13.0 0.00 0.00 0.00 33 1015.4
20260502190508 62 306 6.0 25.0 0.00 0.00 0.00 34 1015.5
20260502190018 61 240 10.0 25.0 0.00 0.00 0.00 34 1015.7
20260502185507 61 221 6.0 17.0 0.00 0.00 0.00 34 1015.7
20260502185006 61 216 7.0 17.0 0.00 0.00 0.00 34 1015.8
20260502184514 62 194 5.0 19.0 0.00 0.00 0.00 40 1015.8
20260502184005 61 250 8.0 19.0 0.00 0.00 0.00 35 1016.0
20260502183507 60 254 3.0 13.0 0.00 0.00 0.00 36 1016.0
20260502183020 60 249 8.0 18.0 0.00 0.00 0.00 35 1016.1
20260502182506 61 309 10.0 18.0 0.00 0.00 0.00 34 1016.3
20260502182007 60 250 7.0 13.0 0.00 0.00 0.00 37 1016.3
20260502181528 61 292 6.0 18.0 0.00 0.00 0.00 36 1016.4
20260502181007 60 246 11.0 18.0 0.00 0.00 0.00 36 1016.5
20260502180505 59 252 9.0 15.0 0.00 0.00 0.00 38 1016.5
20260502170508 58 249 8.0 14.0 0.00 0.00 0.00 39 1017.6
20260502164008 57 212 5.0 16.0 0.00 0.00 0.00 37 1017.9
20260502163505 57 247 9.0 16.0 0.00 0.00 0.00 37 1017.9
20260502163036 56 236 9.0 16.0 0.00 0.00 0.00 40 1018.0
20260502162510 56 244 8.0 14.0 0.00 0.00 0.00 40 1018.1
20260502162010 56 247 7.0 14.0 0.00 0.00 0.00 38 1018.1
20260502161522 56 249 7.0 14.0 0.00 0.00 0.00 41 1018.3
20260502161006 55 254 5.0 15.0 0.00 0.00 0.00 41 1018.3
20260502160506 55 250 8.0 17.0 0.00 0.00 0.00 39 1018.2
20260502152002 53 286 9.0 16.0 0.00 0.00 0.00 48 1018.9
20260502151515 52 281 6.0 14.0 0.00 0.00 0.00 46 1018.9
20260502151003 52 280 7.0 16.0 0.00 0.00 0.00 46 1018.9
20260502150503 52 268 6.0 16.0 0.00 0.00 0.00 48 1018.9
20260502130508 40 291 4.0 10.0 0.00 0.00 0.00 66 1019.3
20260502123501 38 250 3.0 9.0 0.00 0.00 0.00 72 1019.4
20260502123022 37 241 2.0 9.0 0.00 0.00 0.00 72 1019.4
20260502122506 37 235 4.0 8.0 0.00 0.00 0.00 72 1019.3
20260502122004 37 234 4.0 10.0 0.00 0.00 0.00 73 1019.3
20260502121510 36 221 4.0 10.0 0.00 0.00 0.00 74 1019.3
20260502121005 36 242 5.0 8.0 0.00 0.00 0.00 74 1019.3
20260502120507 36 250 4.0 8.0 0.00 0.00 0.00 75 1019.3
20260502115506 35 225 5.0 9.0 0.00 0.00 0.00 74 1019.2
20260502115009 35 249 5.0 8.0 0.00 0.00 0.00 74 1019.2
20260502114508 35 235 4.0 8.0 0.00 0.00 0.00 73 1019.1
20260502114002 35 262 5.0 8.0 0.00 0.00 0.00 74 1019.1
20260502113504 35 250 4.0 8.0 0.00 0.00 0.00 74 1019.1
20260502113010 35 240 5.0 7.0 0.00 0.00 0.00 74 1019.1
20260502112502 35 240 4.0 7.0 0.00 0.00 0.00 74 1019.1
20260502112006 35 234 3.0 8.0 0.00 0.00 0.00 73 1019.1
20260502111522 35 273 4.0 8.0 0.00 0.00 0.00 73 1019.1
20260502111007 35 248 4.0 8.0 0.00 0.00 0.00 73 1019.0
20260502110504 35 228 4.0 9.0 0.00 0.00 0.00 73 1019.2
20260502110021 35 250 5.0 9.0 0.00 0.00 0.00 73 1019.2
20260502105507 35 221 5.0 8.0 0.00 0.00 0.00 74 1019.1
20260502105002 35 238 4.0 8.0 0.00 0.00 0.00 75 1019.1
20260502104511 35 241 4.0 8.0 0.00 0.00 0.00 75 1019.2
20260502104002 35 247 3.0 7.0 0.00 0.00 0.00 75 1019.2
20260502103502 35 231 4.0 6.0 0.00 0.00 0.00 75 1019.1
20260502103010 35 229 3.0 5.0 0.00 0.00 0.00 74 1019.1
20260502102506 35 234 3.0 5.0 0.00 0.00 0.00 74 1019.1
20260502102005 35 205 3.0 5.0 0.00 0.00 0.00 74 1019.1
20260502101505 36 250 3.0 5.0 0.00 0.00 0.00 73 1019.0
20260502101003 36 250 2.0 5.0 0.00 0.00 0.00 73 1019.0
20260502100506 36 245 2.0 5.0 0.00 0.00 0.00 73 1019.0
20260502091518 38 243 3.0 5.0 0.00 0.00 0.00 68 1019.1
20260502091008 38 255 2.0 6.0 0.00 0.00 0.00 67 1019.1
20260502090506 38 259 3.0 6.0 0.00 0.00 0.00 67 1019.1
20260502071512 38 259 3.0 6.0 0.00 0.00 0.00 65 1019.2
20260502071006 38 261 3.0 6.0 0.00 0.00 0.00 67 1019.2
20260502070508 38 254 3.0 6.0 0.00 0.00 0.00 68 1019.2
20260502070027 38 255 3.0 5.0 0.00 0.00 0.00 69 1019.2
20260502065507 38 235 3.0 7.0 0.00 0.00 0.00 70 1019.3
20260502065007 38 228 3.0 7.0 0.00 0.00 0.00 71 1019.3
20260502064526 38 237 3.0 5.0 0.00 0.00 0.00 74 1019.3
20260502064005 38 244 3.0 5.0 0.00 0.00 0.00 74 1019.4
20260502063506 38 247 3.0 5.0 0.00 0.00 0.00 74 1019.4
20260502063016 38 221 2.0 4.0 0.00 0.00 0.00 74 1019.4
20260502062510 38 231 2.0 5.0 0.00 0.00 0.00 74 1019.3
20260502062006 38 242 2.0 5.0 0.00 0.00 0.00 73 1019.4
20260502061532 37 228 3.0 5.0 0.00 0.00 0.00 72 1019.4
20260502061007 37 243 3.0 5.0 0.00 0.00 0.00 72 1019.4
20260502060503 37 228 3.0 5.0 0.00 0.00 0.00 74 1019.4
20260502060006 37 228 3.0 5.0 0.00 0.00 0.00 74 1019.4
20260502055504 37 221 3.0 5.0 0.00 0.00 0.00 76 1019.4
20260502055004 37 236 3.0 4.0 0.00 0.00 0.00 76 1019.4
20260502054512 38 247 2.0 4.0 0.00 0.00 0.00 76 1019.4
20260502054007 38 230 2.0 4.0 0.00 0.00 0.00 76 1019.4
20260502053503 38 232 2.0 4.0 0.00 0.00 0.00 76 1019.4
20260502053010 38 254 2.0 3.0 0.00 0.00 0.00 75 1019.4
20260502052507 38 230 2.0 4.0 0.00 0.00 0.00 75 1019.4
20260502052003 38 217 2.0 4.0 0.00 0.00 0.00 74 1019.4
20260502051508 38 221 1.0 3.0 0.00 0.00 0.00 75 1019.5
20260502051002 38 221 2.0 3.0 0.00 0.00 0.00 74 1019.5
20260502050503 38 238 2.0 3.0 0.00 0.00 0.00 74 1019.5
20260502050007 38 232 2.0 3.0 0.00 0.00 0.00 74 1019.5
20260502045506 38 242 2.0 4.0 0.00 0.00 0.00 74 1019.4
20260502045004 39 250 2.0 4.0 0.00 0.00 0.00 73 1019.4
20260502044504 39 232 2.0 4.0 0.00 0.00 0.00 72 1019.4
20260502044003 39 238 2.0 4.0 0.00 0.00 0.00 71 1019.4
20260502043504 39 241 2.0 4.0 0.00 0.00 0.00 71 1019.4
20260502043024 39 231 2.0 4.0 0.00 0.00 0.00 70 1019.4
20260502042504 39 238 2.0 4.0 0.00 0.00 0.00 69 1019.3
20260502042006 39 252 2.0 4.0 0.00 0.00 0.00 69 1019.3
20260502041516 39 221 2.0 4.0 0.00 0.00 0.00 69 1019.2
20260502041003 39 232 3.0 5.0 0.00 0.00 0.00 68 1019.2
20260502040504 39 225 2.0 5.0 0.00 0.00 0.00 67 1019.3
20260502040013 40 232 3.0 4.0 0.00 0.00 0.00 65 1019.3
20260502035503 40 215 2.0 3.0 0.00 0.00 0.00 63 1019.2
20260502035005 40 238 2.0 3.0 0.00 0.00 0.00 62 1019.2
20260502034512 40 225 2.0 3.0 0.00 0.00 0.00 60 1019.3
20260502034007 41 225 2.0 3.0 0.00 0.00 0.00 60 1019.4
20260502033502 41 225 2.0 4.0 0.00 0.00 0.00 60 1019.4
20260502033017 41 236 2.0 4.0 0.00 0.00 0.00 59 1019.3
20260502032504 41 234 2.0 5.0 0.00 0.00 0.00 59 1019.4
20260502032003 41 236 2.0 5.0 0.00 0.00 0.00 59 1019.4
20260502031504 42 241 2.0 4.0 0.00 0.00 0.00 59 1019.4
20260502031004 42 265 2.0 4.0 0.00 0.00 0.00 57 1019.4
20260502030504 42 254 2.0 4.0 0.00 0.00 0.00 55 1019.4
20260502030009 42 265 2.0 6.0 0.00 0.00 0.00 53 1019.4
20260502025503 42 254 2.0 8.0 0.00 0.00 0.00 51 1019.4
20260502025003 42 257 3.0 8.0 0.00 0.00 0.00 51 1019.4
20260502024515 43 265 2.0 8.0 0.00 0.00 0.00 50 1019.4
20260502024002 43 268 3.0 7.0 0.00 0.00 0.00 49 1019.4
20260502023503 43 265 3.0 7.0 0.00 0.00 0.00 47 1019.4
20260502023014 43 273 3.0 7.0 0.00 0.00 0.00 46 1019.4
20260502022508 44 259 2.0 6.0 0.00 0.00 0.00 46 1019.4
20260502022006 44 273 2.0 6.0 0.00 0.00 0.00 46 1019.3
20260502021505 44 265 2.0 6.0 0.00 0.00 0.00 45 1019.3
20260502021001 45 280 3.0 6.0 0.00 0.00 0.00 44 1019.3
20260502020503 45 265 2.0 4.0 0.00 0.00 0.00 44 1019.2
20260502020010 45 265 2.0 4.0 0.00 0.00 0.00 43 1019.1
20260502015506 46 265 1.0 3.0 0.00 0.00 0.00 42 1019.1
20260502015006 46 286 1.0 3.0 0.00 0.00 0.00 40 1019.0
20260502014507 47 291 2.0 3.0 0.00 0.00 0.00 40 1018.9
20260502014003 47 291 1.0 3.0 0.00 0.00 0.00 39 1018.9
20260502013508 47 279 1.0 3.0 0.00 0.00 0.00 39 1018.9
20260502013025 48 273 1.0 3.0 0.00 0.00 0.00 39 1018.9
20260502012502 48 301 1.0 3.0 0.00 0.00 0.00 40 1018.9
20260502012006 49 286 1.0 7.0 0.00 0.00 0.00 38 1018.9
20260502011509 49 332 1.0 8.0 0.00 0.00 0.00 37 1018.9
20260502011003 49 298 2.0 8.0 0.00 0.00 0.00 36 1018.9
20260502010504 50 294 2.0 7.0 0.00 0.00 0.00 36 1018.8
20260502010015 50 319 2.0 9.0 0.00 0.00 0.00 36 1018.9
20260502005508 50 291 5.0 9.0 0.00 0.00 0.00 35 1018.9
20260502005007 50 282 4.0 11.0 0.00 0.00 0.00 35 1018.9
20260502004514 50 284 4.0 11.0 0.00 0.00 0.00 34 1018.9
20260502004007 51 267 5.0 11.0 0.00 0.00 0.00 35 1018.8
20260502003505 51 9 4.0 11.0 0.00 0.00 0.00 34 1018.8
20260502003018 51 306 5.0 10.0 0.00 0.00 0.00 36 1018.9
20260502002503 51 221 4.0 10.0 0.00 0.00 0.00 35 1018.8
20260502002007 51 311 3.0 9.0 0.00 0.00 0.00 34 1018.8
20260502001510 51 254 3.0 8.0 0.00 0.00 0.00 37 1018.9
20260502001002 51 325 2.0 9.0 0.00 0.00 0.00 36 1018.9
20260502000506 51 241 4.0 14.0 0.00 0.00 0.00 36 1018.7
20260502000014 51 298 7.0 14.0 0.00 0.00 0.00 34 1018.7
20260501235503 51 319 5.0 11.0 0.00 0.00 0.00 35 1018.7
20260501235007 52 313 4.0 11.0 0.00 0.00 0.00 33 1018.7
20260501234522 53 281 4.0 15.0 0.00 0.00 0.00 33 1018.7
20260501234003 53 243 5.0 15.0 0.00 0.00 0.00 33 1018.8
20260501233506 53 315 8.0 15.0 0.00 0.00 0.00 36 1018.8
20260501233022 54 261 6.0 15.0 0.00 0.00 0.00 33 1018.9
20260501232502 54 239 10.0 15.0 0.00 0.00 0.00 33 1018.8
20260501232003 54 294 6.0 10.0 0.00 0.00 0.00 33 1018.6
20260501231512 54 277 3.0 9.0 0.00 0.00 0.00 34 1018.7
20260501231004 53 51 4.0 10.0 0.00 0.00 0.00 34 1018.7
20260501230503 52 178 1.0 10.0 0.00 0.00 0.00 34 1018.8
20260501230016 52 270 6.0 10.0 0.00 0.00 0.00 36 1018.7
20260501225506 51 317 3.0 9.0 0.00 0.00 0.00 40 1018.9
20260501225005 51 321 3.0 10.0 0.00 0.00 0.00 36 1018.9
20260501224512 51 284 5.0 10.0 0.00 0.00 0.00 36 1019.0
20260501224005 51 257 3.0 9.0 0.00 0.00 0.00 36 1018.9
20260501223506 52 289 3.0 13.0 0.00 0.00 0.00 36 1018.9
20260501223011 53 292 4.0 16.0 0.00 0.00 0.00 34 1018.8
20260501222503 53 282 7.0 16.0 0.00 0.00 0.00 33 1018.9
20260501222007 54 269 6.0 14.0 0.00 0.00 0.00 33 1018.9
20260501221517 54 9 3.0 14.0 0.00 0.00 0.00 33 1019.0
20260501221002 54 298 6.0 13.0 0.00 0.00 0.00 37 1018.9
20260501220508 53 13 3.0 12.0 0.00 0.00 0.00 39 1018.8
20260501220020 53 331 7.0 15.0 0.00 0.00 0.00 33 1018.9
20260501215505 53 265 6.0 15.0 0.00 0.00 0.00 34 1018.9
20260501215006 54 254 8.0 15.0 0.00 0.00 0.00 35 1018.9
20260501214523 54 269 8.0 16.0 0.00 0.00 0.00 36 1018.7
20260501214007 54 302 6.0 16.0 0.00 0.00 0.00 34 1018.7
20260501213504 54 336 10.0 16.0 0.00 0.00 0.00 33 1018.7
20260501213021 53 252 4.0 14.0 0.00 0.00 0.00 36 1018.7
20260501212503 52 337 4.0 13.0 0.00 0.00 0.00 33 1018.9